Location: Unspecified
(0.0000°N, 0.0000°E)
Time: 16:17:25
(UTC+00:00)

deb r/b Ablestar - Pass Details

Date: 16 April 2026
Orbit: 780 x 880 km, 66.7° (Epoch: 13 May)

Event Time Altitude Azimuth Distance (km) Brightness Sun altitude
Exits shadow 03:55:47 61° 66° (ENE) 887 ? -30.5°
Drops below altitude 10° 04:00:23 10° 27° (NNE) 2,326 ? -29.4°
Sets 04:02:47 0° 25° (NNE) 3,248 ? -28.8°
